Regional Weather Roundup
Issued by NWS

Home | Current Version | Previous Version | Text Only | Print | Product List | Glossary Off
Versions: 1 2 3 4 5 6 7 8 9 10 11 12 13 14 15 16 17 18 19 20 21 22 23 24 25 26 27 28 29 30 31 32 33 34 35 36 37 38 39 40 41 42 43 44 45 46 47 48 49 50

068
ASUS45 KCYS 131910
RWRWY

WYOMING REGIONAL WEATHER ROUNDUP
NATIONAL WEATHER SERVICE CHEYENNE WY
1200 PM MST SAT FEB 13 2016

NOTE:  "FAIR" INDICATES FEW OR NO CLOUDS BELOW 12,000 FEET
WITH NO SIGNIFICANT WEATHER AND/OR OBSTRUCTIONS TO VISIBILITY.

WYZ001-132000-
YELLOWSTONE NATIONAL PARK

CITY           SKY/WX    TMP DP  RH WIND       PRES   REMARKS
LK YELLOWSTONE   N/A     26  22  84 VRB7      30.05R WCI  18
W YELLOWSTONE  NOT AVBL

$$
WYZ002>013-054>058-071-098>099-132000-
NORTHERN WYOMING

CITY           SKY/WX    TMP DP  RH WIND       PRES   REMARKS
JACKSON        PTSUNNY   41  25  52 S23G46    30.06F
CODY           PTSUNNY   54  19  26 W14G20    29.87F
GREYBULL       FAIR      51  31  46 S8        29.85F
WORLAND        FAIR      44  33  65 SW3       29.85F
SHERIDAN       MOSUNNY   63  18  17 NW14      29.76F
BUFFALO          N/A     56  29  35 NE8       29.83F
GILLETTE       FAIR      56  31  38 SW16      29.82F
HULETT         FAIR      48  32  53 W9        29.83F
NEWCASTLE      FAIR      45  28  53 SE7       29.89F

$$
WYZ014>020-022>026-101>103-132000-
CENTRAL WYOMING

CITY           SKY/WX    TMP DP  RH WIND       PRES   REMARKS
BIG PINEY      FAIR      43  22  43 NW24G36   30.15S
PINEDALE         N/A     37  25  60 W9        30.14F WCI  31
DUBOIS         FAIR      43  14  31 W32G43    29.95F
LANDER         FAIR      51  14  22 W33G45    29.94F
RIVERTON       FAIR      51  22  31 W21       29.96F
CASPER         FAIR      44  24  45 SW26G37   29.95F
DOUGLAS        FAIR      53  26  35 W17       29.93F

$$
WYZ021-027>030-104>119-132000-
SOUTHERN WYOMING

CITY           SKY/WX    TMP DP  RH WIND       PRES   REMARKS
EVANSTON       FAIR      38  19  46 SW18      30.24F WCI  28
KEMMERER       FAIR      39  23  52 W20G28    30.19F WCI  30
FORT BRIDGER   CLEAR     43  23  45 W18       30.24F
ROCK SPRINGS   FAIR      42  21  43 W18G25    30.16F
DIXON          MOCLDY    36  23  59 W9        30.23R WCI  29
RAWLINS        FAIR      40  19  43 SW22G32   30.12F WCI  30
SARATOGA       MOCLDY    41  23  48 W28G33    30.12S
LARAMIE        FAIR      51  14  22 W26G37    30.07S
CHEYENNE       FAIR      59  15  18 W13G18    30.01F
TORRINGTON     FAIR      39  31  72 SE8       29.94F WCI  33
PINE BLUFFS    FAIR      57  30  35 CALM      29.98F

$$




USA.gov is the U.S. government's official web portal to all federal, state and local government web resources and services.